Vertical_Velocity
4 -1 -0 -0 2 2 -1 -1 -1 -2 -2 -1 -2 -3 1 1 -0 1 0 -3 -2 -1 -2 -3 -3 -0 -3 -0 -2 -0 1 -2 -1 -1 -1 3 1 -3 -1 -5 2 2 0
3 4 2 4 6 1 2 3 5 6 4 -8 2 -0 -1 -2 1 1 1 -5 -3 -2 -3 2 -2 -1 -0 2 3 3 2 0 2 -0 1 1 -1 -3 -5 1 -3 -4 1
2 -1 2 4 5 2 -1 -2 -6 -1 4 -9 2 -0 -0 -1 1 1 4 1 -1 -2 -3 -2 -0 2 0 0 1 -1 -2 -3 0 -1 -0 -2 -3 -3 -1 0 1 -3 -2
4 3 2 3 3 1 2 3 -0 2 -6 -2 6 1 -5 5 1 4 4 -1 -2 -1 -2 2 -0 -1 -0 -1 -2 -1 2 1 -3 2 -3 -3 -4 3 -3 -3 3 -1 -0
4 3 4 3 3 6 3 2 -2 15 -13 2 -1 2 1 1 4 4 5 4 0 1 -1 0 0 3 2 -3 -0 1 1 -1 1 -0 -2 -3 -1 0 1 -1 -1 1 -4
1 3 3 7 6 2 2 1 -6 5 -5 6 -5 4 3 3 3 4 5 1 -0 -0 -3 -5 -3 -2 -2 0 1 2 1 -1 -0 -4 -1 -5 -3 -6 -6 -4 -2 1 -0
4 3 5 2 6 2 -0 -5 13 -6 -0 1 1 4 -0 -1 1 4 4 0 1 -2 3 -1 0 -2 -1 0 -2 -1 -1 -3 -2 -1 -3 0 -1 -1 1 2 -3 -1 1
7 13 9 4 9 16 -19 -10 9 -2 12 -9 1 4 1 -0 5 4 5 3 3 6 -2 -3 0 2 3 1 -2 3 0 -1 -4 -2 -2 -2 -2 -0 -0 0 1 -2 -3
16 1 0 10 8 -5 -3 -11 -5 7 -3 -4 4 4 1 7 2 4 -0 1 -2 6 5 1 3 -2 -4 -0 1 2 4 3 0 -3 -1 4 0 -1 -1 -3 -2 -0 -1
6 9 7 11 4 7 -21 3 -6 16 -4 -3 2 3 1 -2 -0 -0 -1 -3 1 3 -1 -1 1 -1 -2 3 -2 -0 -1 -3 -0 -4 1 -3 -5 -4 -4 -2 -1 -3 -3
2 3 -0 7 -15 -25 -3 -4 12 -4 -0 -0 1 3 -1 -1 2 -0 2 -1 3 -1 1 1 1 2 2 -0 -1 2 -0 -2 -0 -2 -1 -1 0 -1 1 -1 -4 -2 -2
4 18 18 13 -21 -9 -7 10 2 -1 -0 2 4 1 2 1 2 -3 -3 -2 3 -3 1 2 -1 2 -0 -0 -2 -1 -1 -0 1 1 -1 1 3 0 -2 -2 -1 1 -2
-3 -4 6 -12 -12 6 2 4 1 -6 2 2 0 -1 -2 8 -5 -1 0 4 -2 2 3 -3 0 3 0 4 -1 -0 0 -0 1 -0 3 0 0 1 -2 -1 -0 -2 -1
-12 -23 1 -20 -10 6 6 5 2 4 4 1 -4 -0 3 -1 -5 5 0 1 -2 2 -0 1 -3 -2 -2 -2 2 1 -2 1 1 -4 1 0 1 1 0 -3 -1 -0 -0
7 -4 -41 -28 1 -5 1 -2 -3 4 1 -3 3 3 -1 -2 2 -3 1 2 2 -1 3 -1 -1 -0 1 -1 -0 -2 -3 -2 -0 1 3 4 1 -1 0 2 0 -0 -1
3 -10 3 -1 -7 6 -3 -2 7 -2 5 7 -0 3 3 -1 2 1 1 3 -0 -2 1 -1 -0 -1 1 0 -4 -2 -1 -2 -2 -2 -2 -1 -1 -1 1 1 1 1 -0
6 3 -4 4 12 -0 4 -1 -1 4 -1 -1 2 2 -2 5 1 1 0 -0 -0 2 -2 1 -0 -1 -3 -0 -0 2 1 -2 -5 -5 -6 -3 -2 -0 1 1 1 -1 -1
1 0 6 7 2 1 0 -5 7 -4 3 -1 4 -1 -1 -1 -3 6 1 1 -1 -0 -1 -2 -1 -2 0 1 1 1 -4 -3 -3 -3 -3 -4 -2 -1 -0 -1 -0 -0 -1
-5 -2 -2 -1 0 1 0 -2 5 4 0 4 -0 3 -1 -2 0 0 -0 2 0 -1 1 0 -2 -1 1 0 -0 -3 -2 -2 -2 -3 -2 0 1 -0 -1 -1 1 -1 -1
2 4 1 -2 0 -1 -0 -0 4 0 4 2 2 -1 1 -1 0 1 3 1 -1 -0 1 -1 -1 -1 -2 -4 -3 -5 -3 -1 -0 0 -1 -1 -3 -3 -2 -1 -1 1 0
1 -1 1 -2 -1 1 -1 -3 -1 -1 1 7 2 2 -1 1 2 1 -0 1 2 -1 -2 -3 -0 -0 -3 -3 -3 1 -2 -2 -1 1 -0 -4 -5 -4 -3 -5 -3 -2 -0
1 -1 -3 -0 -1 -2 1 -0 5 0 4 3 3 -1 -1 3 2 2 3 -0 -1 -1 1 -0 -1 -1 -1 -1 -1 -3 -1 -0 0 -2 -2 -2 -2 -4 -1 1 1 1 0
-6 -5 -5 -2 4 -1 3 2 1 5 5 -3 -2 1 1 3 2 4 1 0 -0 2 -2 -0 -2 -3 -3 -2 -0 2 -0 -3 -0 -1 -1 0 -2 -3 -3 -2 -1 -1 3
-0 1 1 1 3 4 5 2 1 2 -2 -3 4 6 1 0 1 2 1 -1 -4 -5 2 -6 4 1 1 1 1 2 -1 1 -2 -3 -4 -3 -2 -2 -3 1 -1 1 2
-3 1 2 0 5 1 -2 6 1 0 3 6 4 2 2 3 2 1 -3 2 3 -2 3 -2 -2 2 -1 -2 -1 -3 -1 -1 2 3 -1 -6 1 -1 -8 -5 -2 2 4
0 1 4 0 -2 -3 4 7 2 3 1 4 0 1 1 0 -0 1 4 3 9 -1 -1 -2 -0 -0 0 1 -0 0 2 -0 -2 0 1 -1 2 -0 0 -7 1 -0 0
Height
1511 1516 1520 1524 1528 1530 1532 1535 1537 1539 1542 1545 1548 1550 1553 1553 1554 1555 1554 1556 1557 1557 1558 1559 1560 1561 1561 1562 1563 1563 1562 1563 1565 1565 1565 1564 1562 1562 1563 1564 1563 1560 1558
1510 1515 1520 1525 1527 1530 1533 1536 1538 1540 1540 1545 1547 1550 1553 1554 1554 1556 1555 1557 1558 1559 1560 1561 1561 1562 1563 1565 1564 1564 1564 1566 1566 1565 1565 1565 1564 1564 1565 1566 1563 1562 1561
1510 1515 1520 1525 1527 1530 1534 1537 1540 1542 1542 1545 1548 1550 1553 1555 1556 1558 1558 1558 1560 1560 1563 1564 1564 1564 1565 1566 1566 1566 1566 1567 1568 1567 1566 1567 1567 1567 1567 1566 1564 1563 1563
1512 1515 1520 1524 1528 1532 1536 1539 1541 1544 1543 1547 1548 1551 1554 1556 1558 1558 1559 1559 1561 1561 1563 1566 1565 1566 1567 1568 1568 1568 1568 1567 1569 1568 1568 1568 1570 1569 1569 1568 1566 1564 1565
1515 1517 1520 1525 1529 1532 1536 1539 1542 1544 1545 1549 1549 1552 1555 1558 1559 1560 1561 1561 1563 1563 1565 1567 1568 1569 1570 1569 1570 1570 1570 1569 1570 1569 1569 1570 1571 1570 1570 1569 1569 1566 1566
1516 1520 1524 1527 1529 1534 1537 1540 1544 1544 1547 1549 1551 1554 1557 1560 1561 1562 1563 1563 1565 1566 1565 1569 1569 1571 1572 1572 1571 1571 1571 1571 1570 1572 1571 1571 1571 1571 1571 1570 1569 1567 1566
1516 1521 1524 1528 1530 1534 1539 1543 1547 1547 1549 1551 1554 1556 1558 1561 1562 1563 1564 1566 1567 1567 1567 1568 1569 1571 1572 1572 1572 1573 1572 1573 1573 1573 1573 1573 1572 1572 1570 1569 1569 1569 1567
1517 1520 1524 1528 1533 1533 1540 1546 1550 1549 1552 1555 1557 1558 1560 1562 1564 1566 1566 1568 1569 1569 1568 1569 1571 1571 1573 1572 1574 1574 1573 1572 1573 1574 1574 1573 1572 1573 1570 1570 1569 1568 1567
1519 1521 1523 1525 1530 1531 1537 1549 1550 1553 1554 1556 1559 1560 1562 1563 1565 1566 1568 1569 1571 1572 1571 1571 1572 1573 1573 1574 1576 1576 1575 1574 1573 1575 1575 1573 1572 1571 1571 1569 1568 1567 1565
1520 1520 1522 1522 1525 1529 1540 1546 1550 1553 1554 1557 1560 1561 1562 1564 1566 1568 1569 1571 1573 1573 1573 1574 1573 1574 1574 1574 1574 1576 1575 1575 1574 1573 1574 1572 1571 1570 1570 1569 1568 1566 1565
1521 1523 1524 1523 1531 1537 1543 1546 1549 1552 1556 1557 1559 1561 1563 1566 1566 1568 1570 1572 1573 1573 1575 1574 1575 1574 1575 1573 1575 1575 1575 1575 1575 1573 1573 1572 1571 1569 1568 1566 1566 1565 1563
1518 1521 1520 1523 1535 1539 1543 1548 1550 1554 1557 1558 1560 1563 1564 1566 1567 1569 1570 1573 1574 1575 1576 1575 1576 1577 1575 1574 1574 1576 1575 1575 1573 1571 1572 1571 1570 1568 1566 1565 1564 1563 1562
1517 1520 1524 1531 1537 1543 1548 1550 1552 1554 1558 1559 1561 1564 1567 1567 1569 1571 1571 1572 1575 1575 1575 1575 1576 1577 1576 1575 1574 1575 1574 1573 1572 1570 1569 1568 1568 1567 1565 1563 1562 1562 1561
1520 1529 1531 1532 1536 1542 1547 1550 1552 1554 1557 1559 1563 1565 1567 1568 1569 1571 1572 1572 1574 1575 1576 1575 1576 1576 1577 1575 1574 1573 1573 1572 1570 1569 1568 1566 1565 1565 1563 1562 1561 1559 1558
1518 1522 1533 1536 1539 1543 1546 1549 1552 1555 1558 1561 1563 1566 1566 1568 1570 1570 1572 1572 1573 1575 1575 1574 1576 1576 1576 1574 1572 1572 1572 1570 1567 1566 1565 1564 1562 1562 1561 1560 1559 1558 1556
1523 1528 1534 1536 1540 1543 1545 1549 1552 1555 1559 1561 1563 1565 1566 1568 1570 1570 1571 1571 1572 1574 1575 1575 1575 1576 1574 1573 1571 1570 1568 1566 1565 1564 1562 1561 1559 1558 1558 1558 1558 1557 1556
1526 1531 1535 1538 1540 1542 1545 1549 1552 1555 1558 1561 1563 1564 1565 1568 1568 1571 1571 1570 1573 1573 1574 1575 1574 1574 1574 1572 1570 1569 1566 1564 1563 1561 1560 1560 1558 1557 1556 1556 1556 1556 1555
1527 1530 1534 1536 1539 1542 1545 1549 1552 1555 1558 1561 1562 1564 1564 1567 1568 1570 1569 1569 1572 1573 1574 1574 1573 1573 1573 1571 1570 1567 1564 1561 1560 1560 1559 1559 1557 1556 1556 1555 1555 1554 1553
1528 1531 1534 1536 1540 1543 1545 1550 1553 1554 1557 1559 1561 1562 1564 1565 1569 1568 1569 1569 1571 1573 1572 1572 1572 1572 1571 1569 1567 1564 1562 1560 1559 1559 1558 1557 1556 1555 1555 1554 1553 1552 1550
1528 1531 1534 1536 1540 1543 1546 1549 1552 1553 1555 1557 1559 1561 1562 1564 1566 1567 1568 1569 1570 1572 1572 1570 1570 1569 1567 1565 1563 1561 1559 1558 1558 1557 1556 1555 1554 1553 1552 1551 1550 1548 1547
1527 1529 1531 1534 1538 1540 1543 1546 1549 1550 1553 1554 1557 1560 1561 1563 1564 1566 1567 1568 1569 1570 1569 1569 1567 1565 1563 1562 1560 1559 1557 1557 1556 1555 1553 1552 1551 1550 1549 1548 1545 1544 1543
1524 1526 1529 1531 1535 1538 1541 1544 1547 1549 1551 1554 1556 1558 1560 1562 1563 1566 1566 1565 1566 1566 1566 1565 1564 1563 1562 1559 1558 1556 1555 1555 1553 1552 1551 1549 1548 1548 1546 1544 1542 1540 1538
1519 1522 1526 1529 1531 1535 1539 1542 1544 1545 1549 1552 1553 1556 1558 1560 1562 1563 1562 1562 1563 1562 1562 1562 1560 1560 1559 1558 1557 1556 1553 1551 1549 1548 1547 1546 1545 1544 1543 1540 1539 1537 1535
1514 1519 1523 1526 1529 1533 1537 1538 1540 1542 1545 1548 1551 1554 1556 1556 1558 1558 1558 1559 1560 1561 1559 1559 1558 1556 1555 1555 1554 1551 1551 1549 1548 1543 1543 1543 1541 1540 1538 1536 1533 1531 1529
1513 1516 1520 1524 1526 1531 1534 1535 1536 1540 1544 1546 1548 1550 1551 1553 1553 1554 1556 1557 1556 1556 1557 1555 1555 1555 1552 1551 1549 1547 1546 1545 1544 1543 1536 1537 1536 1534 1533 1532 1528 1526 1525
1509 1513 1517 1520 1523 1527 1531 1531 1533 1537 1540 1542 1544 1546 1548 1550 1552 1554 1555 1554 1554 1554 1554 1551 1552 1550 1548 1546 1544 1542 1541 1540 1539 1538 1534 1531 1528 1527 1526 1526 1524 1522 1520